Weather in Conselheiro Lafaiete

Brazil     20°39′35″S   43°47′08″W
temp.,
°C
wind,
m/s
gust,
m/s
humid.,
%
clouds,
%
prec.,
mm/h
press.,
hPa
HPBL,
m
20 april, tue
tue2000:00+14s11951 0.0 101512
03:00+13sse01950 0.0 101410
06:00+12sw11950 0.0 101510
09:00+19se11700 0.0 1015394
12:00+24w13490 0.0 10131442
15:00+25sw34442 0.0 10111952
18:00+19sse116968 0.0 101320
21:00+15ese12901 0.1 101631
21 april, wed
wed2100:00+13sse01950 0.0 101611
03:00+12w11930 0.0 101411
06:00+12w11910 0.0 101511
09:00+19wsw11630 0.0 1016382
12:00+24w23470 0.0 10141394
15:00+24sw23452 0.0 10111894
18:00+19se2368100 0.0 101363
21:00+17ese118666 0.4 101614
22 april, thu
thu2200:00+14se11940 0.1 101610
03:00+13sw01930 0.1 101510
06:00+12wsw01930 0.0 101610
09:00+19se00710 0.0 1016377
12:00+24wnw02500 0.0 10141596
15:00+24wsw23440 0.0 10121695
18:00+18ese3580100 0.2 1014137
21:00+15e24961 0.5 1017101
23 april, fri
fri2300:00+13e12978 0.0 101733
03:00+12e01940 0.0 101610
06:00+11se01910 0.0 101810
09:00+17ese22740 0.0 1018334
12:00+24ese12550 0.0 1015941
15:00+25wnw354311 0.0 10122233
18:00+19w236327 0.0 101356
21:00+16ese11760 0.0 101511
24 april, sat
sat2400:00+14ese11940 0.0 101512
03:00+13ese119931 0.0 101511
06:00+14e119777 0.0 101680
09:00+19nnw01785 0.0 1017358
12:00+26wnw36490 0.0 10141647
15:00+26wnw46460 0.0 10112168
18:00+19w23721 0.0 101242
21:00+16ne11810 0.0 101411